Volver al catálogo

CZ-3A DEB

LostHEO
NORAD 39598·DEBRIS·🇨🇳 China

Lanzado Feb 2, 2007 desde Xichang Satellite Launch Center

Loading…

Próximos Pases (próximas 24 horas)

TLE

ObsoletoSource: Space-Track

Época: Sep 13, 2025, 06:19 UTC

1 39598U 07003AK  25256.26323645  .00000076  00000-0  67066-2 0  9995
2 39598  26.1244  85.8030 7455166 188.1448 357.7963  1.82486958    19

Sigue CZ-3A DEB en tiempo real con AllMySat

Download on the App Store